Regional Weather Roundup
Issued by NWS

Home | Current Version | Previous Version | Text Only | Print | Product List | Glossary On
Versions: 1 2 3 4 5 6 7 8 9 10 11 12 13 14 15 16 17 18 19 20 21 22 23 24 25 26 27 28 29 30 31 32 33 34 35 36 37 38 39 40 41 42 43 44 45 46 47 48 49 50
000
ASUS45 KBOI 221310
RWRID
WEATHER ROUNDUP FOR IDAHO
NATIONAL WEATHER SERVICE BOISE ID
700 AM MDT FRI AUG 22 2014

NOTE: "FAIR" INDICATES FEW OR NO CLOUDS BELOW 12000 FEET
WITH NO SIGNIFICANT WEATHER AND/OR OBSTRUCTIONS TO VISIBILITY

IDZ012-014-221400-
SOUTHWEST IDAHO


CITY           SKY/WX    TMP DP  RH WIND       PRES   REMARKS
BOISE          PTCLDY    60  39  45 CALM      29.91R
CALDWELL       PTCLDY    55  39  54 S3        29.91R
MOUNTAIN HOME  CLOUDY    64  50  60 SE16      29.88S
$$

IDZ016-017-221400-
SOUTHCENTRAL IDAHO


CITY           SKY/WX    TMP DP  RH WIND       PRES   REMARKS
BURLEY         CLOUDY    57  55  93 E10       29.97F
JEROME         MOCLDY    57  55  93 NE15      29.94S
TWIN FALLS     MOCLDY    60  53  77 SE12      29.93S
$$

IDZ019>023-221400-
SOUTHEAST IDAHO


CITY           SKY/WX    TMP DP  RH WIND       PRES   REMARKS
IDAHO FALLS    CLOUDY    56  50  80 S3        30.04F
POCATELLO      TSTM      56  54  93 W16       30.07R FOG
REXBURG        CLOUDY    50  48  93 NE6       30.05F
$$

IDZ006-010-011-018-031-032-221400-
CENTRAL IDAHO MOUNTAINS


CITY           SKY/WX    TMP DP  RH WIND       PRES   REMARKS
MCCALL         PTCLDY    41  35  79 CALM      29.98S
HAILEY         MOCLDY    52  46  82 NW8       30.06S
STANLEY          N/A     37  35  92 CALM      30.08F
SALMON         CLOUDY    52  50  93 CALM      30.02R
CHALLIS        MOCLDY    50  45  83 CALM      30.05R
$$

IDZ002-004-006-007-026-221400-
NORTHERN IDAHO


CITY           SKY/WX    TMP DP  RH WIND       PRES   REMARKS
LEWISTON       CLOUDY    66  44  45 E3        29.91S
LOWELL           N/A     57  52  83 CALM      29.94R
COEUR D`ALENE  PTCLDY    55  48  76 N13       29.96S
MULLAN PASS    CLOUDY    46  40  79 SE9G20    30.07S
$$



USA.gov is the U.S. government's official web portal to all federal, state and local government web resources and services.